This demonstration page uses our WeatherBlox Daily Observations layout. Learn more.

Left ArrowRight Arrow

Hourly Observations for May 27, 2020

Temp ( °F °C ) Dew Point ( °F °C ) Humidity (%) Winds ( mph kmh ) Pressure ( in mb ) Visibility ( mi km ) Precip ( " mm )
12:53 am 00:53 Mostly Cloudy 57 13.9 53 11.7 87 87 WSW 3 6 29.89 1012 10 16 0.00 0.00
1:53 am 01:53 Mostly Cloudy 58 14.4 54 12.2 87 87 W 3 6 29.88 1012 10 16 0.00 0.00
2:53 am 02:53 Cloudy 60 15.6 55 12.8 84 84 W 5 7 29.88 1012 10 16 0.00 0.00
3:53 am 03:53 Cloudy 60 15.6 55 12.8 84 84 Calm 29.86 1011 10 16 0.00 0.00
4:53 am 04:53 Cloudy 62 16.7 54 12.2 75 75 NW 3 6 29.86 1011 10 16 0.00 0.00
5:53 am 05:53 Cloudy 62 16.7 55 12.8 78 78 Calm 29.88 1012 10 16 0.00 0.00
6:53 am 06:53 Mostly Cloudy 62 16.7 54 12.2 75 75 NNW 6 9 29.90 1012 10 16 0.00 0.00
7:53 am 07:53 Cloudy 61 16.1 53 11.7 75 75 NW 7 11 29.90 1013 10 16 0.00 0.00
8:53 am 08:53 Mostly Cloudy 63 17.2 55 12.8 76 76 NNW 8 13 29.90 1013 10 16 0.00 0.00
9:53 am 09:53 Cloudy 68 20 57 13.9 68 68 N 9 15 29.90 1013 10 16 0.00 0.00
10:53 am 10:53 Mostly Cloudy 73 22.8 58 14.4 59 59 N 9 15 29.89 1012 10 16 0.00 0.00
11:53 am 11:53 Mostly Cloudy 74 23.3 57 13.9 56 56 N 10 17 29.88 1012 10 16 0.00 0.00
12:53 pm 12:53 Mostly Cloudy 75 23.9 56 13.3 52 52 N 10 17 29.88 1012 10 16 0.00 0.00
1:53 pm 13:53 Cloudy 73 22.8 56 13.3 55 55 N 10 17 29.87 1012 10 16 0.00 0.00
2:53 pm 14:53 Cloudy 73 22.8 57 13.9 57 57 NNE 10 17 29.87 1012 10 16 0.00 0.00
3:53 pm 15:53 Cloudy 73 22.8 57 13.9 57 57 NNE 12 19 29.85 1011 10 16 0.00 0.00
4:53 pm 16:53 Mostly Cloudy 73 22.8 57 13.9 57 57 N 8 13 29.84 1011 10 16 0.00 0.00
5:53 pm 17:53 Cloudy 74 23.3 58 14.4 57 57 N 7 11 29.84 1011 10 16 0.00 0.00
6:53 pm 18:53 Mostly Cloudy 72 22.2 58 14.4 61 61 NNE 8 13 29.84 1010 10 16 0.00 0.00
7:53 pm 19:53 Cloudy 72 22.2 58 14.4 61 61 N 7 11 29.85 1011 10 16 0.00 0.00
8:53 pm 20:53 Cloudy 71 21.7 59 15 66 66 N 7 11 29.86 1011 10 16 0.00 0.00
9:53 pm 21:53 Cloudy 71 21.7 59 15 66 66 NNE 5 7 29.86 1011 10 16 0.00 0.00
10:53 pm 22:53 Cloudy 70 21.1 60 15.6 71 71 NNE 5 7 29.87 1012 10 16 0.00 0.00
11:53 pm 23:53 Mostly Cloudy with Light Rain 67 19.4 62 16.7 84 84 NE 6 9 29.87 1011 10 16 0.00 0.00

Powered by AerisWeather